Location: Unspecified
(38.9820°N, 94.4650°W)
Time: 07:44:52
(UTC-05:00)

HST - Visible Passes

Search period start: 24 October 2014 00:00
Search period end: 02 November 2014 23:00
Orbit: 546 x 550 km, 28.5° (Epoch: 23 October)

Date Brightness Start Highest point End Pass type
(mag) Time Alt. Az. Time Alt. Az. Time Alt. Az.
25 Oct 3.1 19:48:39 10° S 19:49:58 11° SSE 19:50:43 11° SSE visible
26 Oct 3.0 19:40:30 10° SSW 19:42:33 13° SSE 19:43:54 12° SE visible
27 Oct 3.0 19:32:40 10° SSW 19:35:07 15° SSE 19:37:03 12° SE visible
28 Oct 2.9 19:24:59 10° SSW 19:27:42 17° S 19:30:11 11° SE visible
28 Oct 3.8 21:05:31 10° SW 21:05:43 11° SW 21:05:43 11° SW visible
29 Oct 2.9 19:17:23 10° SW 19:20:17 18° S 19:23:10 10° SE visible
29 Oct 3.6 20:58:14 10° SW 20:58:50 12° SW 20:58:50 12° SW visible
30 Oct 2.8 19:09:52 10° SW 19:12:51 19° S 19:15:51 10° SE visible
30 Oct 3.5 20:51:00 10° SW 20:51:58 13° SW 20:51:58 13° SW visible
31 Oct 2.9 19:02:25 10° SW 19:05:26 19° S 19:08:27 10° SE visible
31 Oct 3.4 20:43:52 10° SW 20:45:06 13° SSW 20:45:06 13° SSW visible
01 Nov 3.0 18:55:00 10° SW 18:58:00 19° S 19:00:59 10° SE visible
01 Nov 3.4 20:36:55 10° SW 20:38:18 12° SSW 20:38:18 12° SSW visible
02 Nov 3.1 17:47:39 10° SW 17:50:33 18° S 17:53:27 10° SE visible
02 Nov 3.5 19:30:32 10° SSW 19:31:14 10° SSW 19:31:32 10° SSW visible
